Flag for Canada Weather past 2 weeks in Fort Smith, Northwest Territories, Canada

Now
28 °F

Mostly cloudy.


Feels Like: 23 °F
Forecast: 24 / 34 °F
Wind: 5 mph from Northeast

Location: Fort Smith

Current Time: Mar 30, 2015 at 12:45:02 AM

Latest Report: Mar 30, 2015 at 12:00 AM


Visibility: 15 mi

Pressure: 29.79 "Hg

Humidity: 55%

Dew point: 14 °F

Location of Fort SmithLocation

Historic Weather in Fort Smith — Graph

°F

Fort Smith temperature yesterday

Maximum temperature yesterday: 39 °F (at 3:00 PM)
Minimum temperature yesterday: 18 °F (at 8:00 AM)
Average temperature yesterday: 30 °F

Past Weeks' High & Low Weather Summary

 TemperatureHumidityPressure
High50 °F (Mar 27, 3:00 PM)93% (Mar 23, 1:00 AM)30.57 "Hg (Mar 23, 1:00 AM)
Low-15 °F (Mar 16, 6:00 AM)22% (Mar 18, 2:00 PM)29.36 "Hg (Mar 14, 11:00 PM)
Average14 °F59%30.15 "Hg
* Reported Mar 14 11:00 PM — Mar 29 11:00 PM, Fort Smith, Weather by CustomWeather, © 2015

Note: Actual official high and low records may vary slightly from our data, if they occured in-between our weather recording intervals... More about our weather records

Advertising

Fort Smith weather history for previous 24 hours

 ConditionsComfort  
Time TempWeatherWind HumidityBarometerVisibility
11:00 PM
Sun, Mar 29
30 °FPartly cloudy.5 mph51%29.79 "Hg15 mi
10:00 PM32 °FPartly cloudy.5 mph47%29.79 "Hg15 mi
9:00 PM34 °FPartly sunny.7 mph44%29.79 "Hg15 mi
8:00 PM36 °FPartly sunny.5 mph44%29.79 "Hg15 mi
7:00 PM37 °FBroken clouds.5 mph41%29.80 "Hg15 mi
6:00 PM39 °FBroken clouds.3 mph39%29.79 "Hg15 mi
5:00 PM39 °FPartly sunny.2 mph39%29.79 "Hg15 mi
4:00 PM39 °FPartly sunny.7 mph33%29.79 "Hg15 mi
3:00 PM39 °FScattered clouds.5 mph39%29.80 "Hg15 mi
2:00 PM37 °FScattered clouds.2 mph35%29.83 "Hg15 mi
1:00 PM36 °FScattered clouds.2 mph44%29.85 "Hg15 mi
12:00 PM30 °FScattered clouds.2 mph55%29.85 "Hg15 mi
11:00 AM28 °FPassing clouds.6 mph59%29.86 "Hg15 mi
10:00 AM25 °FPassing clouds.3 mph69%29.87 "Hg15 mi
9:00 AM23 °FPassing clouds.3 mph68%29.88 "Hg15 mi
8:00 AM18 °FClear.8 mph79%29.88 "Hg15 mi
7:00 AM21 °FClear.2 mph80%29.88 "Hg15 mi
6:00 AM21 °FClear.3 mph74%29.87 "Hg15 mi
5:00 AM21 °FClear.3 mph80%29.85 "Hg15 mi
4:00 AM28 °FClear.5 mph59%29.84 "Hg15 mi
3:00 AM28 °FClear.5 mph64%29.83 "Hg15 mi
2:00 AM28 °FClear.6 mph64%29.83 "Hg15 mi
1:00 AM27 °FPassing clouds.3 mph74%29.82 "Hg15 mi
12:00 AM32 °FPassing clouds.5 mph55%29.81 "Hg15 mi
Weather by CustomWeather, © 2015

See weather overviewHow to use our weather pages